Boston, MA

3:39 PM EDT on July 24, 2017 (GMT -0400)
Logan International

Weather History for KBOS - February, 2013

Change the Weather History Date:

Friday, February 8, 2013

  Actual Average Record
Temperature  
Mean Temperature 27 °F 31 °F  
Max Temperature 34 °F 38 °F 66 °F (1933)
Min Temperature 20 °F 24 °F -12 °F (1934)
Degree Days  
Heating Degree Days 38 34  
Month to date heating degree days 305 279  
Since 1 July heating degree days 3165 3389  
Cooling Degree Days 0 0  
Month to date cooling degree days 0 0  
Year to date cooling degree days 0 0  
Moisture  
Dew Point 26 °F    
Average Humidity 82    
Maximum Humidity 100    
Minimum Humidity 63    
Precipitation  
Precipitation 1.25 in 0.10 in 1.52 in (1945)
Month to date precipitation 1.32 0.86  
Year to date precipitation 2.40 4.22  
Sea Level Pressure  
Sea Level Pressure 30.09 in    
Wind  
Wind Speed 26 mph (ENE)    
Max Wind Speed 46 mph    
Max Gust Speed 76 mph    
Visibility 4 miles    
Events Fog , Snow    
T = Trace of Precipitation, MM = Missing Value Source: NWS Daily Summary

Daily Weather History Graph

Daily Weather History Graph

Search for Another Location

Airport or City:

Trip Planner

Search our weather history database for the weather conditions in past years. The results will help you decide how hot, cold, wet, or windy it might be!

Date:

Astronomy

Feb. 08, 2013 Rise Set
Actual Time 6:49 AM EST 5:07 PM EST
Civil Twilight 6:20 AM EST 5:36 PM EST
Nautical Twilight 5:46 AM EST 6:10 PM EST
Astronomical Twilight 5:14 AM EST 6:42 PM EST
Moon 5:16 AM EST (2/8) 3:36 PM EST (2/8)
Length of Visible Light 11h 16m
Length of Day
10h 18m
Waning Crescent, 3% of the Moon is Illuminated
Feb 8
Waning Crescent
Feb 10
New
Feb 17
First Quarter
Feb 25
Full
Mar 4
Last Quarter

Hourly Weather History & Observations

Time (EST) Temp. Windchill Dew Point Humidity Pressure Visibility Wind Dir Wind Speed Gust Speed Precip Events Conditions
12:54 AM 28.0 °F 18.6 °F 19.0 °F 69% 30.48 in 10.0 mi ESE 10.4 mph - N/A   Overcast
1:54 AM 28.9 °F 22.8 °F 21.9 °F 75% 30.46 in 10.0 mi ESE 5.8 mph - N/A   Overcast
2:54 AM 30.0 °F 20.0 °F 21.9 °F 72% 30.42 in 10.0 mi ESE 12.7 mph - N/A   Mostly Cloudy
3:49 AM 30.2 °F 18.9 °F 21.2 °F 69% 30.39 in 10.0 mi ESE 16.1 mph 21.9 mph N/A   Overcast
3:54 AM 30.9 °F 20.2 °F 21.9 °F 69% 30.39 in 10.0 mi ESE 15.0 mph - N/A   Overcast
4:54 AM 30.9 °F 19.4 °F 24.1 °F 76% 30.38 in 10.0 mi SE 17.3 mph - N/A   Overcast
5:54 AM 32.0 °F 20.8 °F 23.0 °F 69% 30.36 in 10.0 mi ESE 17.3 mph - N/A   Overcast
6:54 AM 32.0 °F 20.1 °F 23.0 °F 69% 30.35 in 10.0 mi ESE 19.6 mph - N/A   Overcast
7:54 AM 32.0 °F 19.8 °F 24.1 °F 73% 30.34 in 10.0 mi East 20.7 mph - N/A   Overcast
8:54 AM 33.1 °F 20.6 °F 24.1 °F 70% 30.32 in 10.0 mi East 23.0 mph 27.6 mph N/A   Overcast
9:54 AM 33.1 °F 20.6 °F 26.1 °F 75% 30.30 in 5.0 mi East 23.0 mph 26.5 mph 0.00 in Snow Light Snow
10:10 AM 33.8 °F 21.3 °F 26.6 °F 75% 30.29 in 1.5 mi East 24.2 mph - 0.00 in Snow Light Snow
10:46 AM 33.8 °F 21.9 °F 28.4 °F 81% 30.26 in 0.8 mi East 21.9 mph - 0.00 in Snow Light Snow
10:54 AM 33.1 °F 20.6 °F 28.9 °F 85% 30.26 in 0.8 mi East 23.0 mph - 0.00 in Snow Light Snow
11:07 AM 33.8 °F 21.6 °F 28.4 °F 81% 30.24 in 0.8 mi East 23.0 mph - 0.00 in Snow Light Snow
11:15 AM 33.8 °F 21.6 °F 28.4 °F 81% 30.24 in 0.8 mi East 23.0 mph - 0.00 in Snow Light Snow
11:54 AM 33.1 °F 20.6 °F 30.0 °F 89% 30.20 in 0.8 mi East 23.0 mph - 0.01 in Snow Light Snow
12:54 PM 33.1 °F 20.1 °F 30.0 °F 89% 30.15 in 0.8 mi East 25.3 mph 32.2 mph 0.01 in Snow Light Snow
1:54 PM 32.0 °F 18.1 °F 30.0 °F 92% 30.10 in 0.5 mi ENE 27.6 mph 35.7 mph 0.01 in Fog , Snow Snow
2:54 PM 32.0 °F 18.4 °F 30.0 °F 92% 30.06 in 0.5 mi ENE 26.5 mph 36.8 mph 0.02 in Fog , Snow Snow
3:54 PM 32.0 °F 18.4 °F 30.0 °F 92% 29.99 in 0.5 mi ENE 26.5 mph 41.4 mph 0.02 in Fog , Snow Snow
4:54 PM 32.0 °F 17.6 °F 30.0 °F 92% 29.94 in 0.5 mi ENE 29.9 mph 48.3 mph 0.01 in Fog , Snow Snow
5:01 PM 32.0 °F 17.4 °F 30.2 °F 93% 29.93 in 0.5 mi ENE 31.1 mph 41.4 mph 0.01 in Fog , Snow Snow
5:10 PM 32.0 °F 16.7 °F 30.2 °F 93% 29.92 in 0.8 mi ENE 34.5 mph 49.5 mph 0.01 in Snow Light Snow
5:54 PM 30.9 °F 16.2 °F 30.0 °F 96% 29.91 in 0.5 mi ENE 29.9 mph 46.0 mph 0.02 in Fog , Snow Snow
6:39 PM 30.2 °F 14.1 °F 30.2 °F 100% 29.87 in 0.5 mi NE 35.7 mph 47.2 mph 0.05 in Fog , Snow Snow
6:54 PM 30.9 °F 14.7 °F 30.9 °F 100% 29.86 in 0.5 mi NE 38.0 mph 50.6 mph 0.05 in Fog , Snow Snow
7:54 PM 30.9 °F 15.1 °F 30.0 °F 96% 29.79 in 0.5 mi NE 35.7 mph 51.8 mph 0.06 in Fog , Snow Snow
8:54 PM 30.0 °F 12.8 °F 28.9 °F 96% 29.71 in 0.2 mi NE 41.4 mph 50.6 mph 0.05 in Fog , Snow Heavy Snow
9:22 PM 30.2 °F 14.5 °F 28.4 °F 93% 29.71 in 0.8 mi NNE 33.4 mph 54.1 mph 0.02 in Snow Light Snow
9:54 PM 24.1 °F 6.9 °F 24.1 °F 100% 29.70 in 0.8 mi North 29.9 mph 39.1 mph 0.05 in Snow Light Snow
10:37 PM 19.4 °F -0.6 °F 19.4 °F 100% 29.65 in 0.8 mi North 34.5 mph 76.0 mph 0.01 in Snow Light Snow
10:54 PM 19.9 °F -1.0 °F 18.0 °F 92% 29.62 in 0.8 mi NNE 40.3 mph 51.8 mph 0.01 in Snow Light Snow
11:30 PM 21.2 °F 2.2 °F 19.4 °F 93% 29.59 in 0.8 mi North 33.4 mph 48.3 mph 0.03 in Snow Light Snow
11:54 PM 21.0 °F 2.7 °F 19.0 °F 92% 29.58 in 0.8 mi North 29.9 mph 48.3 mph 0.03 in Snow Light Snow